Weather in Nerdva

Russia / Perm Krai     58°41′48″N   55°02′39″E
temp.,
°C
wind,
m/s
gust,
m/s
humid.,
%
clouds,
%
prec.,
mm/h
press.,
hPa
HPBL,
m
3 march, wed
wed323:00−4sw2397100 1.9 99385
02:00−6wsw259792 0.1 993121
05:00−9w369751 0.1 994118
08:00−8w379691 0.0 994203
11:00−5wnw369492 0.1 995308
14:00−3wnw348897 0.0 996629
17:00−3wnw358898 0.1 996636
20:00−6wnw2696100 0.1 996202
4 march, thu
thu423:00−10w239494 0.1 99741
02:00−11wsw249756 0.1 995103
05:00−12wsw379677 0.1 996161
08:00−11sw379699 0.1 995218
11:00−9sw369398 0.1 994314
14:00−6ssw3692100 0.2 993456
17:00−5ssw4791100 0.4 992647
20:00−6sse2697100 0.2 991179
5 march, fri
fri523:00−8sse129799 0.5 99121
02:00−9wnw129795 0.2 99221
05:00−10nnw369697 0.3 994178
08:00−15nw239772 0.0 99758
11:00−11nw249361 0.0 998252
14:00−8w238595 0.0 1000614
17:00−8wnw248898 0.2 1001531
20:00−14nw239586 0.1 100276
6 march, sat
sat623:00−16nw239682 0.1 100480
02:00−18wnw239726 0.0 100572
05:00−20w239826 0.0 100774
08:00−19w269785 0.1 1009150
11:00−16w259155 0.1 1009272
14:00−11wsw248425 0.0 1008525
17:00−10ssw369063 0.1 1007649
20:00−11sw2895100 0.4 1007435
7 march, sun
sun723:00−15wnw379680 0.4 1007195
02:00−20wnw239840 0.0 100746
05:00−23wnw229729 0.0 100820
08:00−24wsw22970 0.0 100820
11:00−18ssw249235 0.0 1008225
14:00−14ssw368897 0.1 1008653
17:00−12sw368598 0.2 1007889
20:00−16s239699 0.0 100726